map of REP home
REP - Airport
Location
City:  Siem Reap, Siem Reap, Cambodia
Name:Angkor International Airport
ICAO:VDSR
IATA:REP

Details
Type:Airport (Aerodrome, Airfield)
Use:International (customs port of entry)
Latitude:13°24'38"N (13.410666)
Longitude:103°48'46"E (103.812840)
Datum:WGS 1984
Elevation:60 ft (18 m)
Variation:0.61°W (WMM2015 magnetic declination)
-0.01° annual change
Runways:1
Longest:8366 × 148 ft (2550 × 45 m), paved

Time
Time Zone:UTC+7
Local Time:

Weather
METAR:VDSR 290100Z VRB02KT 9999 FEW020 SCT100 27/25 Q1012
TAF:VDSR 282300Z 2900/2918 35006KT 9999 FEW017 SCT040
TEMPO 2907/2911 SCT015 FEW018CB

Related Locations
Nearby:
Farthest:PIO: 12447 mi / 20032 km
Pisco [Capitán FAP Renán Elías Olivera Airport], ICA, PE

Find:

   beyond  
but within

Other Information
Maps:
NOTAMs:
Links:
Sources:

  
flag of Cambodia   

Sectional Chart

Flight Planning
at skyvector.com

Satellite Image

Google Maps Satellite view

 

Copyright © 2004-2017 Karl L. Swartz. All rights reserved.
The Great Circle Mapper name and logo are trademarks of the Great Circle Mapper.
All other trademarks mentioned herein belong to their respective owners.
Please see credits for attibutions and further copyright information.

  Follow gcmap on Facebook Follow gcmap on Twitter Follow gcmap on Google+ GCmap on LinkedIn

hCard Microformat

Geo Microformat